Content
SEND FEEDBACK

Daily
Averages
Monthly
Summary
Canada

MONTREAL, QUEBEC


Home > North America > Canada > Quebec
Elevation: 118 feet     Latitude: 45 28N     Longitude: 073 45W

WEATHER
 
SELECT A DAY
Number of Records: 203,703;   Date Range: 1/1/95 - 12/27/14
 
SHARE

PRINT THIS DATA

[ ← Previous Day ]
WEATHER ALMANAC - SEPTEMBER 15, 2013
[ Next Day → ]
[ °C ]   °F
Weather ElementAverageHighLow
Temperature58.6 °F66.2 °F (3:00 pm)48.2 °F (3:00 am)
Dewpoint51 °F55.4 °F (6:00 pm)46.4 °F (3:00 am)
Humidity75.8 %94 % (1:00 am)57 % (2:00 pm)
Barometer30.03 in30.08 in (10:00 am)29.99 in (5:00 pm)
Wind Speed12 mph18.4 mph (2:00 pm)
Wind Gust25.3 mph (2:00 pm)
Weather ElementAverage
Visibility20.4 mi
Wind DirectionWSW (233.7 °)

Weather ElementTotal
Precipitation---
Heating Degree Days7.8 (Base 65)
Growing Degree Days7.2 (Base 50)
Averaged from 30 records on September 15, 2013
WEATHER CONDITIONS BREAKOUT
WIND DIRECTION BREAKOUT
WEATHER BY HOUR - SEPTEMBER 15, 2013
[ °C ]   °F
Local TimeTemperatureDewpointHumidityBarometerVisibilityWind DirectionWind SpeedGust SpeedPrecipitationEventsConditions
1:00 AM50.0 °F48.2 °F94 %30.04 in15.0 miWSW (250°)4.6 mphScattered Clouds
2:00 AM51.0 °F48.0 °F86 %30.04 in15.0 miWSW (240°)4.6 mph
2:00 AM51.8 °F48.2 °F88 %30.04 in15.0 miSW (230°)5.8 mphClear
3:00 AM48.2 °F46.4 °F93 %30.03 in15.0 miWSW (250°)8.1 mphClear
4:00 AM50.0 °F46.4 °F87 %30.04 in15.0 miWSW (240°)9.2 mphPartly Cloudy
5:00 AM50.0 °F46.4 °F87 %30.05 in15.0 miWSW (250°)9.2 mphPartly Cloudy
6:00 AM50.0 °F46.4 °F87 %30.05 in15.0 miWSW (240°)10.4 mphScattered Clouds
7:00 AM51.8 °F46.4 °F82 %30.06 in30.0 miWSW (240°)12.7 mphMostly Cloudy
8:00 AM53.6 °F48.2 °F82 %30.07 in30.0 miWSW (250°)10.4 mphOvercast
8:00 AM53.0 °F48.0 °F78 %30.07 in28.0 miWSW (250°)10.4 mphOvercast
9:00 AM55.4 °F50.0 °F82 %30.07 in30.0 miWSW (250°)10.4 mphOvercast
10:00 AM59.0 °F51.8 °F77 %30.08 in30.0 miSW (220°)13.8 mphOvercast
11:00 AM60.8 °F53.6 °F77 %30.07 in30.0 miSW (220°)12.7 mphOvercast
12:00 PM62.6 °F53.6 °F72 %30.06 in30.0 miSW (220°)15.0 mph21.9 mphOvercast
1:00 PM62.6 °F51.8 °F68 %30.04 in30.0 miSW (230°)16.1 mphOvercast
2:00 PM64.4 °F51.8 °F64 %30.03 in30.0 miSW (220°)18.4 mph25.3 mphOvercast
2:00 PM64.0 °F52.0 °F57 %30.03 in28.0 miSW (230°)17.3 mphOvercast
3:00 PM66.2 °F51.8 °F60 %30.01 in30.0 miWSW (240°)16.1 mphOvercast
4:00 PM64.4 °F51.8 °F64 %30.00 in15.0 miSW (230°)13.8 mph24.2 mphOvercast
5:00 PM64.4 °F53.6 °F68 %29.99 in15.0 miSW (220°)11.5 mphOvercast
6:00 PM64.4 °F55.4 °F73 %29.99 in15.0 miSSW (210°)10.4 mphOvercast
7:00 PM64.4 °F51.8 °F64 %29.99 in15.0 miSW (230°)15.0 mph20.7 mphOvercast
8:00 PM62.6 °F51.8 °F68 %29.99 in15.0 miWSW (240°)13.8 mphOvercast
8:00 PM63.0 °F52.0 °F59 %29.99 in15.0 miSW (230°)13.8 mphOvercast
8:36 PM62.6 °F53.6 °F72 %30.00 in15.0 miSW (220°)13.8 mphRainLight Rain Showers
9:00 PM62.6 °F53.6 °F72 %30.00 in15.0 miSW (230°)12.7 mphRainLight Rain Showers
9:39 PM62.6 °F53.6 °F72 %29.99 in15.0 miSW (230°)12.7 mphOvercast
9:48 PM62.6 °F53.6 °F72 %29.99 in15.0 miSW (230°)11.5 mphRainLight Rain Showers
10:00 PM60.8 °F55.4 °F82 %29.99 in15.0 miSW (230°)11.5 mphRainLight Rain Showers
11:00 PM59.0 °F55.4 °F88 %29.99 in15.0 miWSW (240°)13.8 mph20.7 mphRainLight Rain
Hourly data recorded from CYUL, located miles away from Montreal, Quebec







STORIES FROM OUR PARTNERS